User: anonymous   Login
Location: Unspecified
(0.0000°N, 0.0000°E)
Time: 11:13:08
(UTC+00:00)
Language:

DSAT - Orbit

View from above orbital plane
View from above orbital plane
View from above satellite
View from above satellite

Ground track
Ground track

The orbit data is extracted from the following two-line orbital elements,

1 42794U 17036AF  24104.90729411  .00011042  00000-0  79522-3 0  9993
2 42794  97.4953  89.1355 0109198   6.4079 353.8511 14.99602235371086
Epoch (UTC): 13 April 2024 21:46:30
Eccentricity: 0.0109198
inclination: 97.4953°
perigee height: 492 km
apogee height: 644 km
right ascension of ascending node: 89.1355°
argument of perigee: 6.4079°
revolutions per day: 14.99602235
mean anomaly at epoch: 353.8511°
orbit number at epoch: 37108

The dashed part of the orbit path shows where the satellite is in the earth's shadow,  

DLR